TimeEST,TemperatureF,Dew PointF,Humidity,Sea Level PressureIn,VisibilityMPH,Wind Direction,Wind SpeedMPH,Gust SpeedMPH,PrecipitationIn,Events,Conditions,WindDirDegrees,DateUTC
12:15 AM,19.4,8.6,63,30.11,10.0,West,5.8,-,N/A,,Overcast,260,2013-01-21 05:15:00
1:20 AM,19.4,10.4,68,30.07,7.0,SW,3.5,-,N/A,,Overcast,230,2013-01-21 06:20:00
8:01 AM,15.8,-9999,N/A,-9999,7.0,West,9.2,-,N/A,,Overcast,280,2013-01-21 13:01:00
9:43 AM,-9999,-9999,N/A,-9999,7.0,NW,11.5,17.3,N/A,,Overcast,310,2013-01-21 14:43:00
10:19 AM,14.0,-9999,N/A,-9999,3.0,NW,8.1,19.6,N/A,,Haze,310,2013-01-21 15:19:00
10:26 AM,-9999,-9999,N/A,30.00,5.0,NW,10.4,-,N/A,,Haze,320,2013-01-21 15:26:00
10:34 AM,15.8,5.9,65,30.00,3.0,WNW,9.2,-,N/A,,Haze,300,2013-01-21 15:34:00
10:54 AM,14.9,5.4,66,30.00,2.5,NW,11.5,17.3,N/A,Snow,Light Snow,310,2013-01-21 15:54:00
11:14 AM,14.7,3.9,62,30.00,4.0,WNW,12.7,19.6,N/A,,Haze,300,2013-01-21 16:14:00
11:34 AM,15.8,2.7,56,29.99,7.0,NNW,13.8,21.9,N/A,,Overcast,330,2013-01-21 16:34:00
11:54 AM,17.6,2.1,51,29.98,10.0,WNW,16.1,21.9,N/A,,Overcast,290,2013-01-21 16:54:00
12:14 PM,17.1,2.1,52,29.98,10.0,NW,13.8,18.4,N/A,,Overcast,320,2013-01-21 17:14:00
12:34 PM,16.3,0.1,49,29.97,10.0,NW,12.7,20.7,N/A,,Overcast,310,2013-01-21 17:34:00
12:54 PM,16.3,-0.6,47,29.97,10.0,NW,15.0,26.5,N/A,,Overcast,310,2013-01-21 17:54:00
1:14 PM,16.5,0.1,49,29.96,10.0,NW,15.0,24.2,N/A,,Overcast,310,2013-01-21 18:14:00
1:34 PM,15.4,-0.8,49,29.96,7.0,WNW,13.8,24.2,N/A,,Overcast,300,2013-01-21 18:34:00
1:54 PM,14.9,-0.8,50,29.96,4.0,West,17.3,28.8,N/A,,Haze,280,2013-01-21 18:54:00
2:14 PM,14.7,-1.3,49,29.96,10.0,WNW,20.7,25.3,N/A,,Overcast,290,2013-01-21 19:14:00
2:34 PM,14.4,-1.5,50,29.97,10.0,WNW,21.9,27.6,N/A,,Overcast,290,2013-01-21 19:34:00
2:54 PM,14.7,0.5,53,29.97,7.0,WNW,17.3,27.6,N/A,,Overcast,300,2013-01-21 19:54:00
3:14 PM,14.4,3.0,61,29.98,1.8,WNW,15.0,23.0,N/A,Snow,Light Snow,300,2013-01-21 20:14:00
3:34 PM,13.8,2.8,62,29.99,2.0,NW,19.6,24.2,N/A,Snow,Light Snow,310,2013-01-21 20:34:00
3:54 PM,13.1,3.6,66,29.99,1.0,WNW,19.6,25.3,N/A,Snow,Light Snow,290,2013-01-21 20:54:00
4:14 PM,13.6,-0.8,53,30.00,10.0,West,13.8,21.9,N/A,,Mostly Cloudy,280,2013-01-21 21:14:00
4:34 PM,12.6,0.9,60,30.01,0.8,WNW,19.6,25.3,N/A,Snow,Light Snow,300,2013-01-21 21:34:00
4:54 PM,12.6,-0.0,57,30.02,7.0,WNW,15.0,21.9,N/A,,Overcast,300,2013-01-21 21:54:00
5:14 PM,11.5,-5.8,46,30.02,10.0,WNW,15.0,-,N/A,,Mostly Cloudy,290,2013-01-21 22:14:00
5:34 PM,10.8,2.1,68,30.03,1.8,NW,10.4,-,N/A,Snow,Light Snow,310,2013-01-21 22:34:00
5:54 PM,10.4,1.0,66,30.03,2.5,WNW,12.7,18.4,N/A,Snow,Light Snow,300,2013-01-21 22:54:00
6:14 PM,9.9,0.3,65,30.04,7.0,WNW,8.1,16.1,N/A,,Overcast,300,2013-01-21 23:14:00
6:34 PM,9.5,-1.1,62,30.04,10.0,WNW,10.4,-,N/A,,Overcast,290,2013-01-21 23:34:00
6:54 PM,9.9,-0.0,64,30.04,7.0,WNW,11.5,-,N/A,,Overcast,300,2013-01-21 23:54:00
7:14 PM,9.5,0.5,67,30.05,4.0,WNW,10.4,-,N/A,Snow,Light Snow,300,2013-01-22 00:14:00
7:34 PM,8.6,-0.6,66,30.05,10.0,NW,6.9,-,N/A,,Mostly Cloudy,310,2013-01-22 00:34:00
7:54 PM,8.4,-0.9,66,30.06,10.0,WNW,9.2,-,N/A,,Scattered Clouds,300,2013-01-22 00:54:00
8:14 PM,8.1,-1.5,65,30.06,10.0,WNW,8.1,-,N/A,,Clear,300,2013-01-22 01:14:00
8:34 PM,8.1,-2.0,64,30.06,10.0,NW,8.1,-,N/A,,Mostly Cloudy,310,2013-01-22 01:34:00
8:54 PM,7.7,-1.7,66,30.06,10.0,WNW,9.2,-,N/A,,Overcast,300,2013-01-22 01:54:00
9:14 PM,7.7,-1.1,67,30.07,5.0,WNW,6.9,-,N/A,,Haze,300,2013-01-22 02:14:00
9:34 PM,7.5,-1.3,67,30.07,7.0,NW,9.2,-,N/A,,Overcast,310,2013-01-22 02:34:00
9:54 PM,7.7,-1.7,66,30.08,7.0,NW,10.4,18.4,N/A,,Overcast,310,2013-01-22 02:54:00
10:14 PM,7.3,-4.2,59,30.08,10.0,NW,10.4,19.6,N/A,,Mostly Cloudy,310,2013-01-22 03:14:00
10:34 PM,7.0,-4.9,58,30.08,10.0,NW,10.4,-,N/A,,Scattered Clouds,310,2013-01-22 03:34:00
10:54 PM,6.8,-4.2,61,30.09,10.0,NW,12.7,18.4,N/A,,Mostly Cloudy,320,2013-01-22 03:54:00
11:14 PM,6.4,-4.4,61,30.10,7.0,NW,15.0,23.0,N/A,,Mostly Cloudy,310,2013-01-22 04:14:00
11:34 PM,5.9,-8.5,52,30.10,10.0,NW,16.1,24.2,N/A,,Clear,310,2013-01-22 04:34:00
11:54 PM,5.5,-7.6,55,30.10,10.0,WNW,6.9,-,N/A,,Clear,300,2013-01-22 04:54:00